Home   Weather   Khon Kaen   Past weeks

Flag for Thailand Past Weather in Khon Kaen, Thailand — Yesterday and Last 2 Weeks

Now
82 °F

Passing clouds.


Feels Like: 88 °F
Forecast: 76 / 90 °F
Wind: 8 mph from Northeast

Location: Khon Kaen Airport

Current Time: Apr 28, 2017 at 9:16:56 pm

Latest Report: Apr 28, 2017 at 8:00 pm


Visibility: 6 mi

Pressure: 29.86 "Hg

Humidity: 74%

Dew Point: 73 °F

Location of Khon KaenLocation

Past Weather in Khon Kaen — Graph

°F

Khon Kaen Temperature Yesterday

Maximum temperature yesterday: 100 °F (at 2:00 pm)
Minimum temperature yesterday: 77 °F (at 3:00 am)
Average temperature yesterday: 87 °F

High & Low Weather Summary for the Past Weeks

 TemperatureHumidityPressure
High102 °F (Apr 21, 2:00 pm)100% (Apr 15, 6:00 am)29.98 "Hg (Apr 15, 6:00 am)
Low72 °F (Apr 22, 6:00 am)26% (Apr 22, 1:00 pm)29.65 "Hg (Apr 21, 5:00 pm)
Average85 °F68%29.80 "Hg
* Reported Apr 13 8:00 pm — Apr 28 8:00 pm, Khon Kaen, Weather by CustomWeather, © 2017

Note: Actual official high and low records may vary slightly from our data, if they occured in-between our weather recording intervals... More about our weather records

Advertising

Khon Kaen Weather History for the Previous 24 Hours

Scroll right to see more
 ConditionsComfort  
Time TempWeatherWind HumidityBarometerVisibility
8:00 pm
Fri, Apr 28
82 °FPassing clouds.8 mph74%29.86 "Hg6 mi
7:00 pm84 °FClear.8 mph70%29.83 "Hg6 mi
6:00 pm86 °FScattered clouds.5 mph66%29.80 "HgN/A
5:00 pm88 °FBroken clouds.7 mph62%29.80 "HgN/A
4:00 pm91 °FScattered clouds.8 mph56%29.80 "HgN/A
3:00 pm88 °FPartly sunny.7 mph66%29.80 "HgN/A
2:00 pm86 °FPartly sunny.6 mph66%29.83 "HgN/A
1:00 pm84 °FPartly sunny.7 mph74%29.86 "HgN/A
12:00 pm84 °FBroken clouds.6 mph70%29.92 "HgN/A
11:00 am82 °FMostly cloudy.6 mph74%29.92 "HgN/A
10:00 am81 °FMostly cloudy.9 mph79%29.95 "HgN/A
9:00 am82 °FMostly cloudy.8 mph74%29.92 "Hg6 mi
8:00 am81 °FMostly cloudy.3 mph84%29.92 "Hg5 mi
7:00 am79 °FBroken clouds.6 mph84%29.89 "Hg5 mi
6:00 am79 °FScattered clouds.7 mph84%29.86 "Hg5 mi
5:00 am79 °FPassing clouds.3 mph84%29.83 "Hg5 mi
4:00 am79 °FClear.5 mph89%29.80 "Hg5 mi
3:00 am79 °FPassing clouds.5 mph94%29.80 "Hg5 mi
1:00 am82 °FPassing clouds.2 mph84%29.83 "Hg5 mi
12:00 am84 °FPassing clouds.3 mph79%29.83 "Hg5 mi
11:00 pm
Thu, Apr 27
84 °FClear.5 mph79%29.83 "Hg5 mi
10:00 pm84 °FPassing clouds.1 mph79%29.86 "Hg5 mi
9:00 pm86 °FPassing clouds.5 mph75%29.83 "Hg5 mi
Weather by CustomWeather, © 2017

See weather overviewHow to use our weather pages